Вернуться в каталог

COSMOS 2251 DEB

АктивенLEO
NORAD 35764·DEBRIS·🇷🇺 Russia

Запущен Jun 16, 1993 с Plesetsk Cosmodrome

Loading…

Ближайшие Пролёты (ближайшие 24 часа)

TLE

УстаревающийSource: Space-Track

Эпоха: Sep 12, 2026, 10:23 UTC

1 35764U 93036ARJ 26255.43274879  .00004613  00000-0  60062-3 0  9991
2 35764  74.0229 164.6290 0025896 216.3614 143.5804 14.80690695700945

Отслеживайте COSMOS 2251 DEB в реальном времени с AllMySat

Download on the App Store